Date String (YYYY-MM-DD hh:mm:ss) UTC,Instrument flags,Ambient pressure (hPa),Sample flow (lpm),Bypass flow (lpm),Sample temperature (°C),Ambient temperature (°C),ASC tube jacket temperature (°C),LED temperature (°C),Box temperature (°C),Sample RH (%),Span deviation,Mass concentration (μg/m³),Mass concentration (μg/m³),Mass concentration (μg/m³)
DateTimeUTC,F1_M11,P_M11,Q1_M11,Q2_M11,T1_M11,T2_M11,T3_M11,T4_M11,T5_M11,U1_M11,ZSPAN_M11,X0_M11,X2_M11,X1_M11
2021-10-06 07:00:00,,0828.5,5.00,0.00,29.8,28.9,00.0,39.0,31.5,13.4,0000.0,0010.84,0004.56,0003.80
2021-10-06 07:01:00,,0828.6,5.01,0.00,29.9,28.9,00.0,39.0,31.6,13.3,0000.0,0010.71,0004.51,0003.78
2021-10-06 07:02:00,,0828.8,4.99,0.00,29.9,28.9,00.0,39.0,31.6,13.2,0000.0,0010.62,0004.48,0003.77
2021-10-06 07:03:00,,0828.9,5.00,0.00,29.9,28.9,00.0,39.0,31.7,13.1,0000.0,0010.63,0004.45,0003.76
2021-10-06 07:04:00,,0829.1,5.00,0.00,29.9,28.9,00.0,39.0,31.6,13.2,0000.0,0011.03,0004.47,0003.76
2021-10-06 07:05:00,,0829.1,5.00,0.00,29.8,28.9,00.0,39.0,31.6,13.2,0000.0,0011.28,0004.56,0003.78
2021-10-06 07:06:00,,0828.6,5.00,0.00,29.8,28.9,00.0,39.0,31.5,13.3,0000.0,0011.11,0004.58,0003.77
2021-10-06 07:07:00,,0828.6,5.01,0.00,29.8,28.8,00.0,39.0,31.5,13.5,0000.0,0012.01,0004.64,0003.79
2021-10-06 07:08:00,,0828.8,5.00,0.00,29.8,28.8,00.0,39.0,31.5,13.7,0000.0,0012.83,0004.74,0003.81
2021-10-06 07:09:00,,0828.9,4.99,0.00,29.8,28.8,00.0,39.0,31.5,13.8,0000.0,0013.19,0004.87,0003.82
2021-10-06 07:10:00,,0828.7,5.00,0.00,29.8,28.8,00.0,39.0,31.5,13.8,0000.0,0013.35,0004.91,0003.83
2021-10-06 07:11:00,,0828.7,5.01,0.00,29.8,28.8,00.0,39.0,31.5,13.8,0001.1,0013.91,0004.98,0003.84
2021-10-06 07:12:00,,0828.7,5.01,0.00,29.8,28.9,00.0,39.0,31.6,13.6,0000.3,0014.51,0005.06,0003.85
2021-10-06 07:13:00,,0828.8,4.99,0.00,29.8,28.9,00.0,39.0,31.6,13.5,0001.2,0015.63,0005.14,0003.87
2021-10-06 07:14:00,,0828.9,4.99,0.00,29.8,28.9,00.0,39.0,31.5,13.5,0000.9,0015.85,0005.23,0003.89
2021-10-06 07:15:00,,0829.0,5.00,0.00,29.8,28.9,00.0,39.0,31.6,13.5,0000.9,0015.54,0005.23,0003.89
2021-10-06 07:16:00,,0828.9,5.00,0.00,29.8,28.9,00.0,39.0,31.5,13.5,0001.0,0015.17,0005.21,0003.88
2021-10-06 07:17:00,,0828.8,5.00,0.00,29.8,28.9,00.0,39.0,31.5,13.5,0001.1,0015.28,0005.22,0003.89
2021-10-06 07:18:00,,0828.6,5.00,0.00,29.8,28.9,00.0,38.9,31.5,13.4,0000.0,0015.15,0005.23,0003.90
2021-10-06 07:19:00,,0828.4,4.99,0.00,29.8,28.9,00.0,38.9,31.5,13.4,0000.0,0014.33,0005.20,0003.91
2021-10-06 07:20:00,,0828.5,5.00,0.00,29.8,28.9,00.0,38.9,31.6,13.4,0000.0,0014.07,0005.19,0003.92
2021-10-06 07:21:00,,0828.5,5.00,0.00,29.8,28.9,00.0,39.0,31.6,13.4,0000.0,0013.76,0005.14,0003.92
2021-10-06 07:22:00,,0828.5,4.99,0.00,29.8,28.9,00.0,39.0,31.6,13.4,0000.1,0014.41,0005.14,0003.92
2021-10-06 07:23:00,,0828.5,5.01,0.00,29.8,28.9,00.0,39.0,31.6,13.4,0002.9,0014.91,0005.13,0003.92
2021-10-06 07:24:00,,0828.5,5.00,0.00,29.8,29.0,00.0,38.9,31.6,13.4,0003.3,0014.34,0005.12,0003.92
2021-10-06 07:25:00,,0828.5,4.99,0.00,29.8,29.0,00.0,38.9,31.6,13.4,0002.5,0014.56,0005.10,0003.92
2021-10-06 07:26:00,,0828.5,5.00,0.00,29.9,29.0,00.0,38.9,31.6,13.4,0001.6,0014.48,0005.15,0003.93
2021-10-06 07:27:00,,0828.5,5.01,0.00,29.9,29.0,00.0,39.0,31.6,13.4,0001.4,0014.48,0005.17,0003.93
2021-10-06 07:28:00,,0828.4,4.98,0.00,29.9,29.1,00.0,39.0,31.7,13.3,0001.9,0014.72,0005.19,0003.93
2021-10-06 07:29:00,,0828.5,5.00,0.00,29.9,29.1,00.0,39.0,31.7,13.3,0002.1,0014.51,0005.17,0003.93
2021-10-06 07:30:00,,0828.5,5.00,0.00,29.9,29.1,00.0,39.0,31.7,13.3,0001.8,0015.61,0005.18,0003.93
2021-10-06 07:31:00,,0828.5,5.00,0.00,29.9,29.1,00.0,39.0,31.7,13.3,0001.5,0016.01,0005.13,0003.92
2021-10-06 07:32:00,,0828.5,5.00,0.00,30.0,29.1,00.0,39.0,31.7,13.3,0001.5,0017.14,0005.12,0003.92
2021-10-06 07:33:00,,0828.5,4.99,0.00,30.0,29.1,00.0,39.0,31.8,13.2,0001.6,0016.05,0005.10,0003.92
2021-10-06 07:34:00,,0828.5,4.99,0.00,30.0,29.2,00.0,39.0,31.7,13.2,0001.6,0015.10,0005.07,0003.92
2021-10-06 07:35:00,,0828.5,4.99,0.00,30.0,29.2,00.0,39.0,31.7,13.2,0001.4,0015.42,0005.12,0003.92
2021-10-06 07:36:00,,0828.4,5.00,0.00,30.0,29.2,00.0,39.0,31.8,13.1,0000.0,0015.73,0005.15,0003.93
2021-10-06 07:37:00,,0828.5,5.00,0.00,30.0,29.2,00.0,39.1,31.8,13.0,0000.0,0015.69,0005.16,0003.93
2021-10-06 07:38:00,,0828.5,4.99,0.00,30.0,29.2,00.0,39.1,31.8,13.0,0000.0,0015.90,0005.11,0003.93
2021-10-06 07:39:00,,0828.5,5.00,0.00,30.0,29.2,00.0,39.1,31.7,13.1,0000.0,0015.95,0005.10,0003.92
2021-10-06 07:40:00,,0828.4,5.00,0.00,30.1,29.2,00.0,39.1,31.8,13.0,0000.0,0016.24,0005.07,0003.91
2021-10-06 07:41:00,,0828.5,4.99,0.00,30.1,29.2,00.0,39.1,31.8,13.1,0000.0,0016.10,0005.04,0003.90
2021-10-06 07:42:00,,0828.5,5.01,0.00,30.1,29.2,00.0,39.1,31.9,13.0,0000.0,0016.53,0005.07,0003.90
2021-10-06 07:43:00,,0828.5,4.99,0.00,30.1,29.2,00.0,39.1,31.9,13.0,0000.0,0015.72,0005.08,0003.90
2021-10-06 07:44:00,,0828.5,5.00,0.00,30.1,29.3,00.0,39.2,31.9,13.0,0000.0,0016.02,0005.12,0003.91
2021-10-06 07:45:00,,0828.5,5.00,0.00,30.1,29.3,00.0,39.2,31.9,13.0,0000.0,0017.04,0005.18,0003.92
2021-10-06 07:46:00,,0828.5,5.00,0.00,30.1,29.3,00.0,39.2,31.9,12.9,0000.0,0018.53,0005.17,0003.91
2021-10-06 07:47:00,,0828.5,5.01,0.00,30.1,29.3,00.0,39.2,31.9,12.9,0000.0,0018.00,0005.15,0003.91
2021-10-06 07:48:00,,0828.5,5.01,0.00,30.2,29.3,00.0,39.2,31.9,12.9,0000.0,0017.57,0005.09,0003.91
2021-10-06 07:49:00,,0828.4,5.00,0.00,30.2,29.3,00.0,39.2,31.9,12.9,0000.0,0017.17,0005.14,0003.92
2021-10-06 07:50:00,,0828.4,5.00,0.00,30.2,29.3,00.0,39.2,31.9,12.9,0000.0,0016.82,0005.14,0003.94
2021-10-06 07:51:00,,0828.4,5.00,0.00,30.2,29.4,00.0,39.2,32.0,12.9,0000.0,0016.43,0005.18,0003.95
2021-10-06 07:52:00,,0828.4,5.01,0.00,30.2,29.4,00.0,39.2,32.0,12.9,0000.0,0015.40,0005.21,0003.96
2021-10-06 07:53:00,,0828.4,4.99,0.00,30.2,29.4,00.0,39.3,31.9,12.8,0000.2,0014.85,0005.19,0003.96
2021-10-06 07:54:00,,0828.4,5.01,0.00,30.2,29.4,00.0,39.3,32.0,12.8,0000.4,0016.09,0005.19,0003.95
2021-10-06 07:55:00,,0828.4,5.01,0.00,30.2,29.4,00.0,39.3,32.0,12.8,0000.7,0016.23,0005.18,0003.94
2021-10-06 07:56:00,,0828.4,5.00,0.00,30.2,29.4,00.0,39.3,32.0,12.8,0000.0,0015.98,0005.13,0003.95
2021-10-06 07:57:00,,0828.4,4.99,0.00,30.2,29.4,00.0,39.3,32.0,12.8,0000.2,0013.80,0005.15,0003.94
2021-10-06 07:58:00,,0828.4,5.00,0.00,30.2,29.4,00.0,39.3,32.0,12.8,0000.7,0013.06,0005.12,0003.94
2021-10-06 07:59:00,,0828.4,4.99,0.00,30.2,29.4,00.0,39.3,32.0,12.8,0000.5,0013.47,0005.17,0003.93
